Weather in Tashir

Armenia     41°07′14″N   44°16′56″E
temp.,
°C
wind,
m/s
gust,
m/s
humid.,
%
clouds,
%
prec.,
mm/h
press.,
hPa
HPBL,
m
24 july, sat
sat2401:00+13n119097 0.3 101027
04:00+12nne229158 0.4 101056
07:00+12nne119289 0.1 101164
10:00+15ne228069 0.3 1011569
13:00+17ne337697 0.3 1010809
16:00+17nne3473100 0.8 1010678
19:00+15ne348648 2.8 1012486
22:00+13n239648 3.1 101491
25 july, sun
sun2501:00+13ne229992 0.3 1015119
04:00+13ne2299100 0.6 1015161
07:00+14ne2299100 0.2 1015191
10:00+14ne2397100 0.4 1016413
13:00+15ne2397100 0.4 1017371
16:00+15nne229699 0.6 1017302
19:00+15nne339297 0.1 1017358
22:00+14n229962 0.2 1018118
26 july, mon
mon2601:00+13n129748 0.0 101981
04:00+12n129851 0.0 101966
07:00+13nne129578 0.0 1019146
10:00+16ne228388 0.1 1018600
13:00+19nne227353 0.0 1017736
16:00+23ne32622 0.4 1015839
19:00+21ne34709 0.1 1014384
22:00+15nnw22870 0.4 101720
27 july, tue
tue2701:00+14n22870 0.1 101717
04:00+13nw22890 0.2 101715
07:00+14nw12890 0.0 101734
10:00+19ne32711 0.0 1015576
13:00+23ne425867 0.6 10121018
16:00+18nne447969 10.4 1014717
19:00+15e248623 1.7 1015146
22:00+12nw11874 1.8 101713
28 july, wed
wed2801:00+11nw22890 0.0 101614
04:00+11nw11936 0.0 101613
07:00+12nnw119322 0.0 101652
10:00+16ne337226 0.1 1014926
13:00+19nne335877 0.2 10131531
16:00+17nne346857 0.3 1013855
19:00+16nne347627 0.2 1014790
22:00+12nne229873 0.6 1017116